User: anonymous   Login
Location: Bothell
(47.7630°N, 122.2040°W)
Time: 17:05:00
(UTC-08:00)
Language:

Oscar 16 - Orbit

View from above orbital plane
View from above orbital plane
View from above satellite
View from above satellite

Ground track
Ground track

The orbit data is extracted from the following two-line orbital elements,

1 20439U 90005D   14350.76124094  .00000369  00000-0  15220-3 0  1957
2 20439 098.5256 284.8020 0010328 345.7814 043.9578 14.32453127300624
Epoch (UTC): 16 December 2014 18:16:11
Eccentricity: 0.0010328
inclination: 98.5256°
perigee height: 776 km
apogee height: 791 km
right ascension of ascending node: 284.8020°
argument of perigee: 345.7814°
revolutions per day: 14.32453127
mean anomaly at epoch: 43.9578°
orbit number at epoch: 30062

The dashed part of the orbit path shows where the satellite is in the earth's shadow,  

DLR